Regional Weather Roundup
Issued by NWS Austin/San Antonio, TX

Home | Current Version | Previous Version | Text Only | Print | Product List | Glossary On
Versions: 1 2 3 4 5 6 7 8 9 10 11 12 13 14 15 16 17 18 19 20 21 22 23 24 25 26 27 28 29 30 31 32 33 34 35 36 37 38 39 40 41 42 43 44 45 46 47 48 49 50
000
ASUS44 KEWX 201401
RWREWX
SOUTH TEXAS REGIONAL WEATHER ROUNDUP
NATIONAL WEATHER SERVICE AUSTIN/SAN ANTONIO TX
900 AM CDT FRI OCT 20 2017

NOTE: "FAIR" INDICATED FEW OR NO CLOUDS BELOW 12,000 FEET WITH NO
SIGNIFICANT WEATHER AND/OR OBSTRUCTIONS TO VISIBILITY.

* - THESE STATIONS ARE NOT NWS OR FAA STATIONS...AND ARE NOT SUBJECT
    TO NWS AND FAA QUALITY CONTROL.

TXZ171-172-183>190-201500-
TEXAS HILL COUNTRY AND EDWARDS PLATEAU

CITY           SKY/WX    TMP DP  RH WIND       PRES   REMARKS
JUNCTION       CLOUDY    66  62  87 E7        30.07F
*LLANO         CLOUDY    64  63  94 MISG      30.12R
BURNET         CLOUDY    66  62  87 NW3       30.11R
*HORSESHOE BAY CLOUDY    65  64  99 CALM      30.08R
*KERRVILLE     CLOUDY    63  61  95 NW5       30.08R
*FREDERICKSBRG CLOUDY    65  64  95 CALM      30.09R FOG
*ROCKSPRINGS   NOT AVBL
*BOERNE STAGE  CLOUDY    64  63  94 CALM      30.08R
*CASTROVILLE   CLOUDY    69  67  94 SE5       30.06R
HONDO          CLOUDY    70  66  87 E5        30.05R
*UVALDE        CLOUDY    68  64  89 E3        30.06R
DEL RIO        CLOUDY    67  67 100 E8        30.02S FOG
LAUGHLIN AFB   DRIZZLE   67  64  90 SE8       30.03S FOG
CARRIZO SPRGS  CLOUDY    68  68 100 SE3       30.03R
*EAGLE PASS    NOT AVBL
$$

TXZ173-191>194-202-209-217>225-228-201500-
CENTRAL AND SOUTH CENTRAL TEXAS

CITY           SKY/WX    TMP DP  RH WIND       PRES   REMARKS
GEORGETOWN     CLOUDY    65  61  87 NE5       30.09R
AUSTIN/BERGSTM LGT RAIN  67  64  90 NE8       30.05R
AUSTIN/MABRY   CLOUDY    69  62  78 CALM      30.07R
*AUSTIN/EXEC   CLOUDY    66  63  88 CALM      30.06S
*LAGO VISTA    CLOUDY    66  63  88 E6        30.07S
SAN MARCOS     CLOUDY    69  64  84 NE3       30.06R
NEW BRAUNFELS  CLOUDY    69  66  90 NE3       30.04R FOG
RANDOLPH AFB   CLOUDY    69  65  89 E7        30.05S
PT SAN ANTONIO CLOUDY    70  66  88 E6        30.03R
SAN ANTONIO    CLOUDY    70  66  87 E7        30.05R
STINSON FIELD  CLOUDY    72  67  84 E7        30.02R
*LA GRANGE     CLOUDY    72  71  96 E3        30.02R
*GIDDINGS      CLOUDY    67  64  89 CALM      30.05F
*GONZALES      CLOUDY    70  70 100 CALM      30.04R
$$

TXZ163>164-176>182-195>201-210>213-226-227-235-201500-
SOUTHEAST TEXAS

CITY           SKY/WX    TMP DP  RH WIND       PRES   REMARKS
COLLEGE STN    CLOUDY    70  66  87 NE6       30.06R
*BRYAN         CLOUDY    66  66 100 MISG      30.08R
*CALDWELL      PTSUNNY   68  65  89 E3        30.05S
*CROCKETT        N/A     66  63  88 CALM      30.11R
*BRENHAM       MOSUNNY   73  71  95 SE5       30.05S
HUNTSVILLE     CLOUDY    71  67  87 E6        30.06R
CONROE         CLOUDY    70  70 100 SE10      30.06R
HOUSTON BUSH   PTSUNNY   73  72  96 E9        30.06R
HOUSTON HOBBY  CLOUDY    76  72  87 E8        30.05R
*HOUSTON SW AP PTSUNNY   74  71  93 E6        30.05R
PEARLAND       CLOUDY    76  72  87 NE7       30.06R
HOUSTON HOOKS  PTSUNNY   72  69  90 E6        30.06R
ELLINGTON FLD  CLOUDY    73  70  88 NE7       30.07R FOG
SUGAR LAND     PTSUNNY   76  71  85 E7        30.04R
*HOUSTON EXEC  PTSUNNY   72  70  94 E6        30.06R
*CLEVELAND MUN RAIN      69  67  95 CALM      30.09R
*WHARTON       SUNNY     73  70  93 E3        30.05R
*COLUMBUS      PTSUNNY   71  70  95 W5        30.05S
*EAGLE LAKE    MOSUNNY   72  72  99 E6        30.04R
$$

TXZ214>216-236>238-201500-
THE UPPER TEXAS COAST

CITY           SKY/WX    TMP DP  RH WIND       PRES   REMARKS
*ORANGE        CLOUDY    73  67  83 E9        30.11S
PORT ARTHUR    CLOUDY    72  67  84 E17G23    30.08R
GALVESTON      CLOUDY    77  74  90 E17       30.06R
ANGLETON       MOSUNNY   77  74  90 SE5       30.03R
*BAY CITY      MOSUNNY   75  75 100 E6        30.03R
PALACIOS       FOG       70  70 100 CALM      30.02R VSB 1
$$

TXZ229>234-239>247-201500-
TEXAS COASTAL BEND AND RIO GRANDE PLAINS

CITY           SKY/WX    TMP DP  RH WIND       PRES   REMARKS
VICTORIA       MOSUNNY   73  71  93 E7        30.03R
*BEEVILLE      FOG       66  66 100 CALM      30.03R VSB 1/2
ROCKPORT       PTSUNNY   74  73  97 N3        30.00S
*PORT ARANSAS  NOT AVBL
*PORT LAVACA   SUNNY     71  70  95 NE7       30.02S
*INGLESIDE     NOT AVBL
CORPUS CHRISTI PTSUNNY   77  74  90 CALM      30.01R
CORPUS NAS     PTSUNNY   78  74  87 CALM      30.00S
*ROBSTOWN      PTSUNNY   73  70  93 E5        30.02R
ALICE          FOG       71  71 100 CALM      30.02R VSB 1/4
KINGSVILLE NAS CLOUDY    73  73 100 CALM      30.01R FOG
COTULLA        CLOUDY    71  66  84 E7        30.03R
*FAITH RANCH   PTSUNNY   72  70  94 E3        30.04R
LAREDO         CLOUDY    70  68  93 E6        30.03R
$$

TXZ248>255-201500-
DEEP SOUTH TEXAS

CITY           SKY/WX    TMP DP  RH WIND       PRES   REMARKS
BROWNSVILLE    SUNNY     77  74  90 CALM      30.00R
PORT ISABEL    SUNNY     78  75  90 NE3       29.99R
*SOUTH PADRE   NOT AVBL
HARLINGEN      MOSUNNY   75  74  96 E3        30.00R
*HEBBRONVILLE  CLOUDY    69  69  97 CALM      30.04R FOG
MCALLEN        MOSUNNY   75  72  90 E6        30.00R
*WESLACO       SUNNY     73  71  91 E3        29.99S
FALFURRIAS     CLOUDY    71  70  96 CALM      30.01R VSB 1/4
EDINBURG       MOSUNNY   72  71  95 CALM      30.01R FOG
*ZAPATA        CLOUDY    71  71  99 E3        30.01R
$$

TXZ213>215-236>238-242>244-246-247-251-254-255-201500-
CMAN STATIONS

STATION/POSITION TIME  TEMP    WIND        PRES    WAVE
                       AIR SEA DIR/SP/G            HT/PER
                 (UTC) (F)     (DEG/KT/KT) (MB)    (FT/S)
SABINE PASS      1330   76 77  100/ 18/ 23 1019.8
SEA RIM ST PARK  1300   76     110/ 13/ 19 1018.7
NORTH JETTY/GLS  1330      76  120/ 25/ 32 1017.1
EAGLE POINT      1330   75 74  150/ 15/ 17 1017.6
MORGANS POINT    1330   73 77   70/  9/ 13 1017.8
PORT O`CONNOR    1324   74 75  330/  4/  4 1015.8
MALAQUITE BEACH  1324   75 78  310/  2/  3 1015.5
BAFFIN BAY       1324   74 76  360/  3/  4 1016.2
PORT ISABEL      1324   78 78  110/  2/  3 1015.2
$$




USA.gov is the U.S. government's official web portal to all federal, state and local government web resources and services.